When you browse on this site, cookies collect data to enhance your experience and personalize the content and advertising you see.
Visit our Privacy Policy to learn more. By continuing to use the site, you agree to this use of cookies and data.

Hourly Weather Kudashevo

Today, 13 July, Monday

Time Temperature Precipitation Wind Pressure Humidity
00:00 +17°C° 0 mm 0 mps 754 mmHg 81%
01:00 +17°C° 0 mm 0 mps 754 mmHg 84%
02:00 +17°C° 0 mm 0 mps 754 mmHg 84%
03:00 +16°C° 0 mm 0 mps 754 mmHg 85%
04:00 +16°C° 0 mm 0 mps 754 mmHg 86%
05:00 +19°C° 0 mm 1 mps 754 mmHg 83%
06:00 +21°C° 0 mm 1 mps 754 mmHg 80%
07:00 +22°C° 0 mm 1 mps 754 mmHg 78%
08:00 +23°C° 0 mm 2 mps 753 mmHg 74%
09:00 +24°C° 0 mm 2 mps 753 mmHg 70%
10:00 +26°C° 0 mm 3 mps 753 mmHg 66%
11:00 +26°C° 0 mm 3 mps 753 mmHg 65%
12:00 +27°C° 0 mm 3 mps 753 mmHg 64%
13:00 +28°C° 0 mm 3 mps 752 mmHg 62%
14:00 +28°C° 0 mm 3 mps 752 mmHg 63%
15:00 +29°C° 0 mm 3 mps 752 mmHg 64%
16:00 +29°C° 0 mm 3 mps 752 mmHg 65%
17:00 +28°C° 0 mm 3 mps 752 mmHg 69%
18:00 +28°C° 0 mm 3 mps 751 mmHg 73%
19:00 +27°C° 0 mm 3 mps 751 mmHg 77%
20:00 +26°C° 0 mm 3 mps 751 mmHg 79%
21:00 +24°C° 0 mm 3 mps 751 mmHg 82%
22:00 +22°C° 0 mm 3 mps 751 mmHg 84%
23:00 +22°C° 0 mm 3 mps 751 mmHg 84%

Tomorrow, 14 July, Tuesday

Time Temperature Precipitation Wind Pressure Humidity
00:00 +21°C° 0 mm 3 mps 751 mmHg 84%
01:00 +21°C° 0 mm 2 mps 750 mmHg 83%
02:00 +20°C° 0.7 mm 2 mps 751 mmHg 87%
03:00 +20°C° 0.7 mm 2 mps 751 mmHg 90%
04:00 +19°C° 0.7 mm 2 mps 751 mmHg 93%
05:00 +20°C° 0 mm 2 mps 751 mmHg 91%
06:00 +21°C° 0 mm 2 mps 751 mmHg 90%
07:00 +23°C° 0 mm 2 mps 751 mmHg 89%
08:00 +25°C° 0 mm 3 mps 751 mmHg 85%
09:00 +27°C° 0 mm 3 mps 751 mmHg 80%
10:00 +29°C° 0 mm 3 mps 751 mmHg 76%
11:00 +31°C° 0 mm 3 mps 751 mmHg 72%
12:00 +33°C° 0 mm 4 mps 751 mmHg 69%
13:00 +34°C° 0 mm 4 mps 751 mmHg 65%
14:00 +34°C° 0 mm 4 mps 751 mmHg 64%
15:00 +34°C° 0 mm 4 mps 751 mmHg 63%
16:00 +34°C° 0 mm 4 mps 751 mmHg 61%
17:00 +33°C° 0 mm 4 mps 751 mmHg 66%
18:00 +32°C° 0 mm 4 mps 751 mmHg 70%
19:00 +30°C° 0 mm 3 mps 751 mmHg 75%
20:00 +29°C° 0 mm 3 mps 751 mmHg 78%
21:00 +28°C° 0 mm 3 mps 751 mmHg 81%
22:00 +26°C° 0 mm 3 mps 751 mmHg 84%
23:00 +26°C° 0 mm 3 mps 751 mmHg 84%

Day after tomorrow, 15 July, Wednesday

Time Temperature Precipitation Wind Pressure Humidity
00:00 +25°C° 0 mm 3 mps 751 mmHg 85%
01:00 +25°C° 0 mm 3 mps 751 mmHg 86%
02:00 +24°C° 0 mm 3 mps 751 mmHg 87%
03:00 +24°C° 0 mm 3 mps 751 mmHg 87%
04:00 +22°C° 0 mm 3 mps 751 mmHg 88%
05:00 +24°C° 0 mm 3 mps 751 mmHg 85%
06:00 +25°C° 0 mm 4 mps 751 mmHg 82%
07:00 +25°C° 0 mm 4 mps 751 mmHg 79%
08:00 +27°C° 0 mm 4 mps 751 mmHg 75%
09:00 +28°C° 0 mm 5 mps 751 mmHg 72%
10:00 +29°C° 0 mm 5 mps 751 mmHg 68%
11:00 +30°C° 0 mm 5 mps 751 mmHg 66%
12:00 +30°C° 0 mm 5 mps 750 mmHg 63%
13:00 +32°C° 0 mm 6 mps 750 mmHg 61%
14:00 +32°C° 0 mm 6 mps 750 mmHg 62%
15:00 +32°C° 0 mm 5 mps 750 mmHg 63%
16:00 +33°C° 0 mm 5 mps 750 mmHg 64%
17:00 +32°C° 0 mm 4 mps 750 mmHg 67%
18:00 +31°C° 0 mm 3 mps 749 mmHg 71%
19:00 +30°C° 0 mm 2 mps 749 mmHg 74%
20:00 +29°C° 0 mm 2 mps 749 mmHg 77%
21:00 +27°C° 0 mm 2 mps 749 mmHg 81%
22:00 +25°C° 0 mm 2 mps 749 mmHg 84%
23:00 +25°C° 0 mm 2 mps 748 mmHg 83%

16 July, Thursday

Time Temperature Precipitation Wind Pressure Humidity
00:00 +24°C° 0 mm 2 mps 748 mmHg 82%
01:00 +24°C° 0 mm 2 mps 748 mmHg 81%
02:00 +24°C° 0.1 mm 2 mps 748 mmHg 80%
03:00 +23°C° 0.1 mm 2 mps 747 mmHg 80%
04:00 +23°C° 0.1 mm 2 mps 747 mmHg 79%
05:00 +22°C° 0 mm 3 mps 747 mmHg 81%
06:00 +24°C° 0 mm 3 mps 747 mmHg 84%
07:00 +23°C° 0 mm 4 mps 747 mmHg 87%
08:00 +25°C° 0 mm 4 mps 747 mmHg 80%
09:00 +26°C° 0 mm 4 mps 748 mmHg 74%
10:00 +28°C° 0 mm 3 mps 748 mmHg 67%
11:00 +28°C° 0 mm 4 mps 748 mmHg 63%
12:00 +28°C° 0 mm 4 mps 748 mmHg 58%
13:00 +29°C° 0 mm 4 mps 748 mmHg 54%
14:00 +29°C° 0 mm 4 mps 749 mmHg 55%
15:00 +28°C° 0 mm 4 mps 749 mmHg 57%
16:00 +28°C° 0 mm 4 mps 749 mmHg 58%
17:00 +27°C° 0 mm 4 mps 749 mmHg 64%
18:00 +27°C° 0 mm 3 mps 749 mmHg 69%
19:00 +26°C° 0 mm 3 mps 749 mmHg 74%
20:00 +24°C° 0 mm 3 mps 749 mmHg 77%
21:00 +21°C° 0 mm 3 mps 749 mmHg 79%
22:00 +19°C° 0 mm 3 mps 749 mmHg 82%
23:00 +19°C° 0 mm 2 mps 749 mmHg 78%

17 July, Friday

Time Temperature Precipitation Wind Pressure Humidity
00:00 +19°C° 0 mm 1 mps 749 mmHg 74%
01:00 +18°C° 0 mm 1 mps 750 mmHg 71%
02:00 +18°C° 0 mm 1 mps 750 mmHg 70%
03:00 +18°C° 0 mm 1 mps 749 mmHg 70%
04:00 +18°C° 0 mm 1 mps 749 mmHg 70%
05:00 +19°C° 0 mm 1 mps 749 mmHg 70%
06:00 +19°C° 0 mm 1 mps 749 mmHg 71%
07:00 +20°C° 0 mm 1 mps 749 mmHg 72%
08:00 +19°C° 0 mm 0 mps 749 mmHg 71%
09:00 +20°C° 0 mm 0 mps 749 mmHg 70%
10:00 +20°C° 0 mm 0 mps 749 mmHg 69%
11:00 +21°C° 0.1 mm 0 mps 749 mmHg 70%
12:00 +23°C° 0.1 mm 1 mps 749 mmHg 71%
13:00 +23°C° 0.1 mm 1 mps 749 mmHg 72%
14:00 +23°C° 0.7 mm 1 mps 749 mmHg 79%
15:00 +22°C° 0.7 mm 1 mps 749 mmHg 85%
16:00 +21°C° 0.7 mm 1 mps 749 mmHg 92%
17:00 +21°C° 0.1 mm 1 mps 749 mmHg 91%
18:00 +21°C° 0.1 mm 1 mps 748 mmHg 90%
19:00 +22°C° 0.1 mm 1 mps 748 mmHg 89%
20:00 +21°C° 0 mm 1 mps 748 mmHg 90%
21:00 +19°C° 0 mm 1 mps 748 mmHg 92%
22:00 +18°C° 0 mm 1 mps 748 mmHg 94%
23:00 +18°C° 0 mm 1 mps 748 mmHg 93%

18 July, Saturday

Time Temperature Precipitation Wind Pressure Humidity
00:00 +18°C° 0 mm 1 mps 748 mmHg 93%
01:00 +18°C° 0 mm 1 mps 748 mmHg 92%
02:00 +18°C° 0 mm 1 mps 748 mmHg 91%
03:00 +16°C° 0 mm 1 mps 748 mmHg 90%
04:00 +16°C° 0 mm 1 mps 748 mmHg 89%
05:00 +18°C° 0 mm 1 mps 748 mmHg 86%
06:00 +19°C° 0 mm 1 mps 748 mmHg 84%
07:00 +19°C° 0 mm 1 mps 748 mmHg 81%
08:00 +21°C° 0 mm 1 mps 748 mmHg 76%
09:00 +21°C° 0 mm 2 mps 748 mmHg 71%
10:00 +24°C° 0 mm 2 mps 748 mmHg 66%
11:00 +24°C° 0.2 mm 2 mps 747 mmHg 64%
12:00 +25°C° 0.2 mm 2 mps 747 mmHg 61%
13:00 +26°C° 0.2 mm 2 mps 747 mmHg 59%
14:00 +25°C° 0.3 mm 2 mps 747 mmHg 61%
15:00 +25°C° 0.3 mm 3 mps 747 mmHg 63%
16:00 +25°C° 0.3 mm 3 mps 747 mmHg 65%
17:00 +25°C° 0.6 mm 3 mps 747 mmHg 70%
18:00 +24°C° 0.6 mm 3 mps 746 mmHg 75%
19:00 +22°C° 0.6 mm 3 mps 746 mmHg 80%
20:00 +20°C° 0.1 mm 3 mps 746 mmHg 85%
21:00 +19°C° 0.1 mm 3 mps 746 mmHg 89%
22:00 +17°C° 0.1 mm 3 mps 746 mmHg 93%
23:00 +17°C° 0 mm 3 mps 746 mmHg 94%
Show more